Anchialos, Greece

3:19 AM EEST on May 30, 2017 (GMT +0300)
Almiros Air Base

Weather History for LGBL - May, 2013

Change the Weather History Date:

Wednesday, May 15, 2013

  Actual Average Record
Temperature  
Mean Temperature 66 °F -  
Max Temperature 77 °F - - ()
Min Temperature 55 °F - - ()
Cooling Degree Days 1    
Growing Degree Days 16 (Base 50)    
Moisture  
Dew Point 55 °F    
Average Humidity 66    
Maximum Humidity 88    
Minimum Humidity 47    
Precipitation  
Precipitation 0.00 in - - ()
Sea Level Pressure  
Sea Level Pressure 29.83 in    
Wind  
Wind Speed 6 mph ()    
Max Wind Speed 15 mph    
Max Gust Speed -    
Visibility 6.2 miles    
Events      
T = Trace of Precipitation, MM = Missing Value Source: Averaged Metar Reports

Daily Weather History Graph

Daily Weather History Graph

Search for Another Location

Airport or City:

Trip Planner

Search our weather history database for the weather conditions in past years. The results will help you decide how hot, cold, wet, or windy it might be!

Date:

Astronomy

May. 15, 2013 Rise Set
Actual Time 6:15 AM EEST 8:35 PM EEST
Civil Twilight 5:45 AM EEST 9:05 PM EEST
Nautical Twilight 5:08 AM EEST 9:42 PM EEST
Astronomical Twilight 4:27 AM EEST 10:24 PM EEST
Moon 10:33 AM EEST (5/15) 12:10 AM EEST (5/15)
Length of Visible Light 15h 20m
Length of Day
14h 19m
Waxing Crescent, 24% of the Moon is Illuminated
May 15
Waxing Crescent
May 18
First Quarter
May 25
Full
May 31
Last Quarter
Jun 8
New

Hourly Weather History & Observations

Time (EEST) Temp. Dew Point Humidity Pressure Visibility Wind Dir Wind Speed Gust Speed Precip Events Conditions
12:50 AM 57.2 °F 51.8 °F 82% 29.86 in 6.2 mi WSW 5.8 mph - N/A   Partly Cloudy
1:50 AM 55.4 °F 51.8 °F 88% 29.86 in 6.2 mi WSW 4.6 mph - N/A   Partly Cloudy
2:50 AM 57.2 °F 51.8 °F 82% 29.83 in 6.2 mi WSW 4.6 mph - N/A   Partly Cloudy
3:50 AM 57.2 °F 51.8 °F 82% 29.83 in 6.2 mi Calm Calm - N/A   Partly Cloudy
4:50 AM 57.2 °F 51.8 °F 82% 29.83 in 6.2 mi Calm Calm - N/A   Scattered Clouds
5:50 AM 55.4 °F 51.8 °F 88% 29.83 in - WSW 4.6 mph - N/A   Clear
6:20 AM 55.4 °F 50.0 °F 82% 29.83 in - West 5.8 mph - N/A   Clear
6:50 AM 55.4 °F 51.8 °F 88% 29.86 in - West 4.6 mph - N/A   Clear
7:20 AM 57.2 °F 53.6 °F 88% 29.86 in - West 4.6 mph - N/A   Clear
7:50 AM 60.8 °F 55.4 °F 82% 29.86 in - Calm Calm - N/A   Clear
8:20 AM 64.4 °F 55.4 °F 73% 29.86 in - Calm Calm - N/A   Clear
8:50 AM 68.0 °F 53.6 °F 60% 29.86 in - Calm Calm - N/A   Clear
9:20 AM 69.8 °F 53.6 °F 56% 29.86 in - Calm Calm - N/A   Clear
9:50 AM 69.8 °F 53.6 °F 56% 29.86 in 6.2 mi East 4.6 mph - N/A   Partly Cloudy
10:20 AM 69.8 °F 53.6 °F 56% 29.86 in 6.2 mi East 4.6 mph - N/A   Partly Cloudy
10:50 AM 69.8 °F 55.4 °F 60% 29.86 in 6.2 mi ENE 5.8 mph - N/A   Scattered Clouds
11:20 AM 71.6 °F 55.4 °F 57% 29.86 in 6.2 mi ENE 6.9 mph - N/A   Scattered Clouds
11:50 AM 71.6 °F 57.2 °F 60% 29.86 in 6.2 mi ENE 8.1 mph - N/A   Scattered Clouds
12:20 PM 71.6 °F 57.2 °F 60% 29.86 in 6.2 mi ENE 9.2 mph - N/A   Scattered Clouds
12:50 PM 73.4 °F 57.2 °F 57% 29.86 in 6.2 mi ENE 10.4 mph - N/A   Scattered Clouds
1:20 PM 75.2 °F 57.2 °F 53% 29.83 in 6.2 mi East 11.5 mph - N/A   Scattered Clouds
1:50 PM 75.2 °F 55.4 °F 50% 29.83 in 6.2 mi ENE 10.4 mph - N/A   Scattered Clouds
2:20 PM 75.2 °F 55.4 °F 50% 29.83 in 6.2 mi ENE 11.5 mph - N/A   Scattered Clouds
2:50 PM 77.0 °F 57.2 °F 50% 29.83 in 6.2 mi East 10.4 mph - N/A   Partly Cloudy
3:20 PM 77.0 °F 57.2 °F 50% 29.83 in 6.2 mi East 12.7 mph - N/A   Partly Cloudy
3:50 PM 75.2 °F 53.6 °F 47% 29.80 in 6.2 mi East 13.8 mph - N/A   Partly Cloudy
4:20 PM 75.2 °F 53.6 °F 47% 29.80 in 6.2 mi East 15.0 mph - N/A   Partly Cloudy
4:50 PM 73.4 °F 55.4 °F 53% 29.80 in 6.2 mi East 13.8 mph - N/A   Partly Cloudy
5:20 PM 73.4 °F 55.4 °F 53% 29.80 in 6.2 mi East 13.8 mph - N/A   Partly Cloudy
5:50 PM 73.4 °F 55.4 °F 53% 29.80 in 6.2 mi East 13.8 mph - N/A   Scattered Clouds
6:20 PM 73.4 °F 55.4 °F 53% 29.80 in 6.2 mi East 13.8 mph - N/A   Scattered Clouds
6:50 PM 71.6 °F 57.2 °F 60% 29.80 in 6.2 mi East 12.7 mph - N/A   Partly Cloudy
7:20 PM 71.6 °F 57.2 °F 60% 29.80 in 6.2 mi East 10.4 mph - N/A   Partly Cloudy
7:50 PM 69.8 °F 59.0 °F 68% 29.80 in 6.2 mi East 10.4 mph - N/A   Partly Cloudy
8:20 PM 68.0 °F 59.0 °F 73% 29.80 in 6.2 mi East 9.2 mph - N/A   Partly Cloudy
8:50 PM 68.0 °F 59.0 °F 73% 29.80 in 6.2 mi East 5.8 mph - N/A   Partly Cloudy
9:50 PM 64.4 °F 57.2 °F 77% 29.83 in 6.2 mi NW 4.6 mph - N/A   Partly Cloudy
10:50 PM 60.8 °F 55.4 °F 82% 29.83 in 6.2 mi West 4.6 mph - N/A   Partly Cloudy
11:50 PM 59.0 °F 55.4 °F 88% 29.86 in 6.2 mi Calm Calm - N/A   Scattered Clouds